When you browse on this site, cookies collect data to enhance your experience and personalize the content and advertising you see.
Visit our Privacy Policy to learn more. By continuing to use the site, you agree to this use of cookies and data.
  • In Spain
  • List of Countries
  • For 7 days
  • Water Temperature
  • Weather Map
  • Weather Widgets
  • user-avatar
    Login

    Hourly Weather Asuan

    Today, 18 February, Tuesday

    Time Temperature Precipitation Wind Pressure Humidity
    00:00 +15°C° 0 mm 4 mps 744 mmHg 49%
    01:00 +14°C° 0 mm 4 mps 744 mmHg 52%
    02:00 +14°C° 0 mm 4 mps 744 mmHg 55%
    03:00 +13°C° 0 mm 3 mps 744 mmHg 58%
    04:00 +13°C° 0 mm 3 mps 744 mmHg 61%
    05:00 +12°C° 0 mm 3 mps 744 mmHg 64%
    06:00 +13°C° 0 mm 3 mps 744 mmHg 60%
    07:00 +14°C° 0 mm 3 mps 745 mmHg 56%
    08:00 +17°C° 0 mm 4 mps 745 mmHg 52%
    09:00 +18°C° 0 mm 4 mps 745 mmHg 45%
    10:00 +20°C° 0 mm 4 mps 745 mmHg 39%
    11:00 +22°C° 0 mm 4 mps 745 mmHg 33%
    12:00 +23°C° 0 mm 4 mps 745 mmHg 30%
    13:00 +25°C° 0 mm 5 mps 744 mmHg 26%
    14:00 +24°C° 0 mm 6 mps 743 mmHg 23%
    15:00 +24°C° 0 mm 6 mps 743 mmHg 24%
    16:00 +25°C° 0 mm 5 mps 743 mmHg 24%
    17:00 +23°C° 0 mm 5 mps 743 mmHg 24%
    18:00 +21°C° 0 mm 5 mps 744 mmHg 28%
    19:00 +20°C° 0 mm 5 mps 744 mmHg 32%
    20:00 +17°C° 0 mm 5 mps 745 mmHg 36%
    21:00 +16°C° 0 mm 5 mps 745 mmHg 39%
    22:00 +16°C° 0 mm 5 mps 745 mmHg 42%
    23:00 +15°C° 0 mm 5 mps 745 mmHg 45%

    Tomorrow, 19 February, Wednesday

    Time Temperature Precipitation Wind Pressure Humidity
    00:00 +14°C° 0 mm 5 mps 745 mmHg 46%
    01:00 +14°C° 0 mm 5 mps 745 mmHg 47%
    02:00 +14°C° 0 mm 5 mps 745 mmHg 48%
    03:00 +13°C° 0 mm 4 mps 745 mmHg 49%
    04:00 +13°C° 0 mm 4 mps 745 mmHg 50%
    05:00 +13°C° 0 mm 4 mps 745 mmHg 52%
    06:00 +14°C° 0 mm 4 mps 746 mmHg 48%
    07:00 +15°C° 0 mm 4 mps 746 mmHg 44%
    08:00 +16°C° 0 mm 5 mps 747 mmHg 41%
    09:00 +17°C° 0 mm 5 mps 747 mmHg 36%
    10:00 +20°C° 0 mm 6 mps 747 mmHg 31%
    11:00 +22°C° 0 mm 7 mps 747 mmHg 27%
    12:00 +22°C° 0 mm 7 mps 746 mmHg 25%
    13:00 +23°C° 0 mm 8 mps 746 mmHg 24%
    14:00 +23°C° 0 mm 8 mps 745 mmHg 22%
    15:00 +22°C° 0 mm 8 mps 745 mmHg 23%
    16:00 +22°C° 0 mm 7 mps 745 mmHg 24%
    17:00 +21°C° 0 mm 7 mps 745 mmHg 25%
    18:00 +20°C° 0 mm 6 mps 746 mmHg 29%
    19:00 +17°C° 0 mm 5 mps 746 mmHg 33%
    20:00 +15°C° 0 mm 4 mps 746 mmHg 36%
    21:00 +15°C° 0 mm 5 mps 747 mmHg 39%
    22:00 +14°C° 0 mm 5 mps 747 mmHg 41%
    23:00 +13°C° 0 mm 5 mps 747 mmHg 43%

    Day after tomorrow, 20 February, Thursday

    Time Temperature Precipitation Wind Pressure Humidity
    00:00 +13°C° 0 mm 4 mps 747 mmHg 45%
    01:00 +13°C° 0 mm 4 mps 747 mmHg 47%
    02:00 +12°C° 0 mm 4 mps 747 mmHg 48%
    03:00 +12°C° 0 mm 4 mps 747 mmHg 50%
    04:00 +11°C° 0 mm 4 mps 747 mmHg 51%
    05:00 +11°C° 0 mm 4 mps 747 mmHg 53%
    06:00 +12°C° 0 mm 4 mps 747 mmHg 51%
    07:00 +13°C° 0 mm 4 mps 748 mmHg 49%
    08:00 +14°C° 0 mm 4 mps 748 mmHg 47%
    09:00 +17°C° 0 mm 4 mps 748 mmHg 41%
    10:00 +19°C° 0 mm 4 mps 748 mmHg 36%
    11:00 +20°C° 0 mm 5 mps 747 mmHg 31%
    12:00 +21°C° 0 mm 4 mps 747 mmHg 27%
    13:00 +23°C° 0 mm 4 mps 746 mmHg 23%
    14:00 +25°C° 0 mm 4 mps 745 mmHg 19%
    15:00 +23°C° 0 mm 4 mps 745 mmHg 19%
    16:00 +23°C° 0 mm 4 mps 744 mmHg 18%
    17:00 +23°C° 0 mm 4 mps 744 mmHg 18%
    18:00 +21°C° 0 mm 3 mps 744 mmHg 20%
    19:00 +19°C° 0 mm 3 mps 745 mmHg 23%
    20:00 +17°C° 0 mm 3 mps 745 mmHg 25%
    21:00 +17°C° 0 mm 3 mps 745 mmHg 26%
    22:00 +16°C° 0 mm 3 mps 745 mmHg 26%
    23:00 +16°C° 0 mm 3 mps 745 mmHg 27%

    21 February, Friday

    Time Temperature Precipitation Wind Pressure Humidity
    00:00 +14°C° 0 mm 3 mps 745 mmHg 29%
    01:00 +14°C° 0 mm 3 mps 745 mmHg 31%
    02:00 +13°C° 0 mm 3 mps 745 mmHg 33%
    03:00 +13°C° 0 mm 3 mps 745 mmHg 35%
    04:00 +12°C° 0 mm 3 mps 744 mmHg 36%
    05:00 +11°C° 0 mm 3 mps 744 mmHg 38%
    06:00 +13°C° 0 mm 3 mps 745 mmHg 36%
    07:00 +14°C° 0 mm 3 mps 745 mmHg 34%
    08:00 +16°C° 0 mm 3 mps 746 mmHg 32%
    15:00 +27°C° 0 mm 3 mps 743 mmHg 13%
    16:00 +27°C° 0 mm 3 mps 743 mmHg 13%
    17:00 +26°C° 0 mm 3 mps 743 mmHg 13%
    18:00 +23°C° 0 mm 4 mps 744 mmHg 15%
    19:00 +21°C° 0 mm 4 mps 744 mmHg 18%
    20:00 +19°C° 0 mm 5 mps 744 mmHg 21%
    21:00 +17°C° 0 mm 5 mps 745 mmHg 23%
    22:00 +16°C° 0 mm 5 mps 745 mmHg 25%
    23:00 +16°C° 0 mm 5 mps 745 mmHg 27%

    22 February, Saturday

    Time Temperature Precipitation Wind Pressure Humidity
    00:00 +15°C° 0 mm 4 mps 745 mmHg 29%
    01:00 +14°C° 0 mm 4 mps 745 mmHg 31%
    02:00 +14°C° 0 mm 4 mps 745 mmHg 33%
    03:00 +13°C° 0 mm 4 mps 745 mmHg 35%
    04:00 +13°C° 0 mm 4 mps 745 mmHg 38%
    05:00 +13°C° 0 mm 4 mps 745 mmHg 40%
    06:00 +13°C° 0 mm 5 mps 746 mmHg 41%
    07:00 +14°C° 0 mm 5 mps 746 mmHg 42%
    08:00 +15°C° 0 mm 6 mps 747 mmHg 43%
    09:00 +17°C° 0 mm 5 mps 747 mmHg 38%
    10:00 +20°C° 0 mm 5 mps 747 mmHg 33%
    11:00 +22°C° 0 mm 4 mps 747 mmHg 28%
    12:00 +23°C° 0 mm 4 mps 746 mmHg 24%
    13:00 +25°C° 0 mm 4 mps 745 mmHg 20%
    14:00 +26°C° 0 mm 4 mps 745 mmHg 17%
    15:00 +26°C° 0 mm 4 mps 745 mmHg 17%
    16:00 +26°C° 0 mm 4 mps 745 mmHg 17%
    17:00 +25°C° 0 mm 4 mps 745 mmHg 17%
    18:00 +22°C° 0 mm 4 mps 745 mmHg 20%
    19:00 +20°C° 0 mm 5 mps 745 mmHg 23%
    20:00 +17°C° 0 mm 5 mps 746 mmHg 26%
    21:00 +16°C° 0 mm 5 mps 746 mmHg 30%
    22:00 +15°C° 0 mm 5 mps 746 mmHg 34%
    23:00 +14°C° 0 mm 5 mps 746 mmHg 38%

    23 February, Sunday

    Time Temperature Precipitation Wind Pressure Humidity
    00:00 +14°C° 0 mm 5 mps 746 mmHg 41%
    01:00 +13°C° 0 mm 5 mps 746 mmHg 43%
    02:00 +13°C° 0 mm 5 mps 746 mmHg 45%
    03:00 +12°C° 0 mm 4 mps 746 mmHg 46%
    04:00 +12°C° 0 mm 4 mps 746 mmHg 47%
    05:00 +12°C° 0 mm 4 mps 746 mmHg 48%
    06:00 +12°C° 0 mm 4 mps 746 mmHg 46%
    07:00 +13°C° 0 mm 4 mps 746 mmHg 43%
    08:00 +14°C° 0 mm 4 mps 746 mmHg 40%
    09:00 +17°C° 0 mm 4 mps 746 mmHg 36%
    10:00 +19°C° 0 mm 4 mps 746 mmHg 32%
    11:00 +20°C° 0 mm 4 mps 746 mmHg 28%
    12:00 +21°C° 0 mm 4 mps 745 mmHg 25%
    13:00 +22°C° 0 mm 4 mps 744 mmHg 23%
    14:00 +25°C° 0 mm 3 mps 744 mmHg 20%
    15:00 +23°C° 0 mm 4 mps 744 mmHg 21%
    16:00 +23°C° 0 mm 4 mps 744 mmHg 21%
    17:00 +22°C° 0 mm 5 mps 744 mmHg 22%
    18:00 +21°C° 0 mm 5 mps 744 mmHg 26%
    19:00 +19°C° 0 mm 6 mps 744 mmHg 30%
    20:00 +16°C° 0 mm 7 mps 745 mmHg 33%
    21:00 +16°C° 0 mm 6 mps 745 mmHg 35%
    22:00 +15°C° 0 mm 5 mps 745 mmHg 36%
    23:00 +15°C° 0 mm 4 mps 745 mmHg 37%
    Show more